Find Starlink 11591

NORAD ID: 63116 Int'l Des: 2025-039 Owner: SPXS Country: US Constellation: starlink operational
又名: STARLINK-11591 [DTC] celestrak
LEOCIRCULAR

当前视图

正在加载3D地球...

About Starlink 11591

Starlink 11591 (NORAD 63116) is a starlink constellation satellite (v2 mini d2c) launched Feb 27, 2025 by SPXS of US. It operates in LEO, CIRCULAR orbit with a mass of 960.00 kg.

即将过境

Passes for default location (London). Set your location on the main map for personalized predictions.

高度历史

Loading altitude history...

两行轨道根数

1 63116U 25039N 26263.08827463 .00140698 00000-0 10790-2 0 9990
2 63116 42.9996 144.6851 0001631 292.4453 67.6242 15.70895707 90192
Epoch: Sep 20, 2026 • Age: 31 hours

当前状态

高度 357.3 km
远地点 / 近地点 N/A
速度 7.70 km/s
星下点 32.28°N, 136.59°E
发射日期 Feb 27, 2025
运行时间 1.5 years
类型 internet

技术详情

分类 Payload
质量 960.00 kg
干质量 910.00 kg
长度 0.30 m
跨度 29.00 m
形状 ? Box + pan
制造商 SPXS
平台类型 Starlink V2MD
阶段状态 In Orbit
所有者/国家 SPXS/US

Most Searched